TimeMST,TemperatureF,Dew PointF,Humidity,Sea Level PressureIn,VisibilityMPH,Wind Direction,Wind SpeedMPH,Gust SpeedMPH,PrecipitationIn,Events,Conditions,WindDirDegrees,DateUTC
12:53 AM,1.9,-9.0,60,30.61,10.0,WNW,17.3,-,N/A,,Clear,300,2014-01-06 07:53:00
1:53 AM,8.1,-5.1,55,30.59,10.0,West,20.7,-,N/A,,Clear,280,2014-01-06 08:53:00
2:53 AM,10.9,-4.0,51,30.59,10.0,West,20.7,-,N/A,,Mostly Cloudy,280,2014-01-06 09:53:00
3:53 AM,15.1,-0.9,49,30.56,10.0,West,19.6,31.1,N/A,,Overcast,280,2014-01-06 10:53:00
4:53 AM,17.1,1.9,52,30.54,10.0,WNW,23.0,32.2,N/A,,Overcast,290,2014-01-06 11:53:00
5:19 AM,21.0,3.9,48,30.27,9.0,WSW,31.1,40.3,N/A,,Overcast,250,2014-01-06 12:19:00
5:53 AM,21.0,5.0,50,30.50,10.0,WSW,29.9,36.8,N/A,,Overcast,240,2014-01-06 12:53:00
6:53 AM,19.9,7.0,57,30.50,7.0,WSW,32.2,41.4,N/A,,Partly Cloudy,240,2014-01-06 13:53:00
7:53 AM,21.0,8.1,57,30.48,7.0,WSW,32.2,40.3,N/A,,Partly Cloudy,240,2014-01-06 14:53:00
8:53 AM,23.0,8.1,53,30.48,9.0,SW,33.4,41.4,N/A,,Partly Cloudy,230,2014-01-06 15:53:00
9:53 AM,24.1,9.0,53,30.48,5.0,SW,38.0,44.9,N/A,,Haze,230,2014-01-06 16:53:00
10:53 AM,24.1,9.0,53,30.45,8.0,SW,36.8,44.9,0.00,,Clear,230,2014-01-06 17:53:00
11:53 AM,26.1,10.9,53,30.41,5.0,SW,35.7,46.0,N/A,,Haze,220,2014-01-06 18:53:00
12:51 PM,28.4,12.2,51,30.15,1.5,SW,42.6,57.5,0.00,,Clear,220,2014-01-06 19:51:00
12:53 PM,28.0,12.0,51,30.36,1.2,SW,36.8,57.5,0.00,,Clear,230,2014-01-06 19:53:00
1:02 PM,28.0,12.0,51,30.14,3.0,SW,36.8,48.3,0.00,,Clear,230,2014-01-06 20:02:00
1:53 PM,30.0,12.0,47,30.30,6.0,SW,34.5,46.0,0.00,,Haze,230,2014-01-06 20:53:00
2:53 PM,34.0,10.0,37,30.25,10.0,West,31.1,44.9,N/A,,Partly Cloudy,260,2014-01-06 21:53:00
3:53 PM,35.1,10.9,37,30.25,10.0,WSW,26.5,39.1,N/A,,Scattered Clouds,240,2014-01-06 22:53:00
4:53 PM,32.0,10.9,42,30.21,10.0,West,24.2,41.4,N/A,,Clear,260,2014-01-06 23:53:00
5:53 PM,32.0,12.0,44,30.19,10.0,SW,39.1,51.8,N/A,,Partly Cloudy,220,2014-01-07 00:53:00
6:53 PM,35.1,14.0,42,30.17,10.0,SW,31.1,48.3,N/A,,Scattered Clouds,230,2014-01-07 01:53:00
7:53 PM,35.1,14.0,42,30.13,10.0,SW,31.1,41.4,N/A,,Clear,220,2014-01-07 02:53:00
8:53 PM,35.1,14.0,42,30.10,10.0,SW,42.6,50.6,N/A,,Clear,220,2014-01-07 03:53:00
9:53 PM,34.0,12.9,42,30.11,10.0,SW,39.1,54.1,N/A,,Clear,220,2014-01-07 04:53:00
10:53 PM,32.0,12.0,44,30.09,10.0,SW,44.9,57.5,N/A,,Partly Cloudy,220,2014-01-07 05:53:00
11:53 PM,32.0,12.0,44,30.06,10.0,SW,39.1,55.2,N/A,,Clear,220,2014-01-07 06:53:00